Preview of NWS' New Version of Forecast
This preview is not operational and should not be used for support decisions.

Regional Weather Roundup (RWR)

Issued by Gray - Portland, ME (GYX)

                            
759 
ASUS41 KGYX 200005
RWRGYX
WEATHER ROUNDUP FOR MAINE AND NEW HAMPSHIRE
NATIONAL WEATHER SERVICE GRAY ME
700 PM EST MON FEB 19 2018

MEZ002-005-006-010-012-015-018-020-021-024-026-027-029-200100-
MAINE
  
CITY           SKY/WX    TMP DP  RH WIND       PRES   REMARKS
PORTLAND       CLOUDY    42  38  85 S9        30.30F                  
6HR MIN TEMP:  40; 6HR MAX TEMP:  42;                                

SANFORD        LGT RAIN  42  34  73 S3        30.29F                  
BAR HARBOR     CLOUDY    41  37  86 SW14      30.34F                  
WISCASSET      CLOUDY    42  38  85 SW9       30.32F                  
6HR MIN TEMP:  41; 6HR MAX TEMP:  42;                                

ROCKLAND       CLOUDY    41  38  89 SW9G17    30.33F                  
FRYEBURG       CLOUDY    43  30  60 S5        30.25F                  
6HR MIN TEMP:  43; 6HR MAX TEMP:  46;                                

LEWISTONAUBURN CLOUDY    40  34  79 S8        30.28F                  
AUGUSTA        CLOUDY    39  35  86 S9        30.28F                  
6HR MIN TEMP:  39; 6HR MAX TEMP:  42;                                

WATERVILLE     LGT RAIN  39  34  82 S6        30.24F                  
BANGOR         CLOUDY    38  35  89 S8        30.30F                  
6HR MIN TEMP:  38; 6HR MAX TEMP:  41;                                

GREENVILLE       N/A     32  27  81 S6        30.18F                  
6HR MIN TEMP:  32; 6HR MAX TEMP:  39;                                

MILLINOCKET    FAIR      35  28  75 SE5       30.27S                  
6HR MIN TEMP:  34; 6HR MAX TEMP:  43;                                

HOULTON        FAIR      37  27  67 S9        30.24R                  
6HR MIN TEMP:  37; 6HR MAX TEMP:  41;                                

PRESQUE ISLE   FAIR      36  26  67 S12       30.21F                  
6HR MIN TEMP:  36; 6HR MAX TEMP:  40;                                

FRENCHVILLE    MOCLDY    32  21  64 S7        30.15S                  
6HR MIN TEMP:  32; 6HR MAX TEMP:  37;                                

CARIBOU        FAIR      35  25  66 S7        30.19F                  
6HR MIN TEMP:  35; 6HR MAX TEMP:  40;                                

$$

NHZ002-005-008-009-011-012-014-200100-
NEW HAMPSHIRE
  
CITY           SKY/WX    TMP DP  RH WIND       PRES   REMARKS
PORTSMOUTH     LGT RAIN  42  35  76 S6        30.29F                  
ROCHESTER      CLOUDY    43  34  70 VRB5      30.28F                  
6HR MIN TEMP:  43; 6HR MAX TEMP:  48; 6HR PCP: TRACE;                

NASHUA         LGT RAIN  44  38  79 VRB3      30.30F                  
MANCHESTER     LGT RAIN  44  36  73 S6        30.29F                  
6HR MIN TEMP:  44; 6HR MAX TEMP:  48; 6HR PCP: TRACE;                

CONCORD        LGT RAIN  40  34  79 S7        30.28F                  
6HR MIN TEMP:  40; 6HR MAX TEMP:  46; 6HR PCP:  0.01;                

LACONIA        CLOUDY    42  31  64 SW8       30.27F                  
PLYMOUTH       CLOUDY    40  30  67 CALM      30.26F                  
BERLIN         LGT RAIN  36  34  92 CALM      30.18F                  
6HR MIN TEMP:  36; 6HR MAX TEMP:  45; 6HR PCP:  0.02;                

WHITEFIELD     CLOUDY    36  34  92 CALM      30.19F                  
6HR MIN TEMP:  36; 6HR MAX TEMP:  46; 6HR PCP: TRACE;                

JAFFREY        LGT RAIN  41  40  96 SW9       30.27F                  
6HR MIN TEMP:  40; 6HR MAX TEMP:  44; 6HR PCP: TRACE;                

KEENE          LGT RAIN  39  36  89 S8        30.29F                  
LEBANON        CLOUDY    40  34  79 S10G18    30.25R                  
6HR MIN TEMP:  40; 6HR MAX TEMP:  45; 6HR PCP: TRACE;                

MT WASHINGTON  FOG       32  32 100 W55G72      N/A  VSB 0   WCI  14  
6HR MIN TEMP:  21; 6HR MAX TEMP:  32; 6HR PCP: TRACE;                

$$

VTZ005-007-008-200100-
VERMONT
  
CITY           SKY/WX    TMP DP  RH WIND       PRES   REMARKS
ST JOHNSBURY     N/A     40  32  73 MISG      30.19S                  
MONTPELIER     CLOUDY    38  32  79 S9        30.23R                  
BURLINGTON     CLOUDY    41  33  73 S24G32    30.18S                  
$$

MAZ007-012-024-CTZ003-RIZ002-NYZ038-NYZ072-200100-
SOUTHERN NEW ENGLAND AND NY
  
CITY           SKY/WX    TMP DP  RH WIND       PRES   REMARKS
BOSTON         LGT RAIN  45  42  89 S9        30.34S                  
WORCESTER      LGT RAIN  41  39  93 SW16      30.29F                  
NANTUCKET      CLOUDY    45  43  93 S12       30.43F                  
PROVIDENCE     LGT RAIN  46  45  96 S8        30.37F                  
HARTFORD       RAIN      43  42  97 S9        30.32F                  
ALBANY         LGT RAIN  40  36  86 S17G26    30.27R                  
NEW YORK CITY  CLOUDY    48  44  86 S6        30.34F                  
$$

ANZ081-ANZ082-ANZ150-NHZ014-MEZ023>029-200100-
COASTAL MARINE OBSERVATIONS
  
STATION/POSITION TIME  TEMP    WIND        PRES    WAVE
                       AIR SEA DIR/SP/G            HT/PER
                 (UTC) (F)     (DEG/KT/KT) (MB)    (FT/S)
MOUNT DESERT ROC 2300   44     180/ 26/ 28 1028.5F
MATINICUS ROCK   2300   43     190/ 24/ 28 1027.5F
ISLE OF SHOALS   2300   45     190/ 22/ 23 1026.6F
JEFFREYS LEDGE   2336      42                N/A     6/11
GEORGES BANK BUO 2250   40 57              1036.3   12/12
$$

.............KEY..............
   WCI - WIND CHILL
   TC  - TEMPERATURE IN CELSIUS
   VSB - VISIBILITY IN MILES
   HX  - HEAT INDEX
   FAIR- INDICATES FEW OR NO CLOUDS BELOW 12,000 FT, WITH NO 
         SIGNIFICANT WEATHER AND/OR OBSTRUCTIONS TO VISIBILITY.